Location: Newark
(39.6889°N, 28.1522°E)
Time: 18:33:20
(UTC+00:00)

ISS - Visible Passes

Search period start: 24 March 2019 00:00
Search period end: 03 April 2019 00:00
Orbit: 408 x 411 km, 51.6° (Epoch: 24 March)

Date Brightness Start Highest point End Pass type
(mag) Time Alt. Az. Time Alt. Az. Time Alt. Az.
24 Mar -3.5 16:56:27 10° WSW 16:59:43 69° NW 17:03:01 10° NE visible
24 Mar -1.1 18:34:42 10° WNW 18:36:48 16° NNW 18:37:09 15° N visible
25 Mar -1.4 17:43:20 10° WNW 17:45:56 21° NNW 17:48:31 10° NNE visible
26 Mar -2.0 16:52:07 10° W 16:55:06 30° NNW 16:58:04 10° NE visible
26 Mar -0.9 18:31:14 10° NNW 18:32:31 12° N 18:33:13 11° N visible
27 Mar -1.0 17:39:43 10° NW 17:41:32 14° NNW 17:43:20 10° NNE visible
28 Mar -1.2 16:48:15 10° WNW 16:50:35 18° NNW 16:52:55 10° NNE visible
28 Mar -0.8 18:27:31 10° NNW 18:28:14 11° N 18:28:51 10° N visible
29 Mar -0.9 17:36:12 10° NNW 17:37:11 11° N 17:38:11 10° NNE visible
30 Mar -1.0 18:22:38 10° NNW 18:23:54 12° N 18:24:16 12° NNE visible
31 Mar -1.0 17:32:02 10° N 17:32:51 11° N 17:33:40 10° NNE visible
31 Mar -0.6 19:07:49 10° NNW 19:08:18 13° NNW 19:08:18 13° NNW visible
01 Apr -1.5 18:17:20 10° NNW 18:19:28 16° NNE 18:19:35 16° NNE visible
02 Apr -1.2 17:26:51 10° NNW 17:28:26 13° NNE 17:30:00 10° NE visible
02 Apr -1.0 19:02:35 10° NW 19:03:36 18° NNW 19:03:36 18° NNW visible
